Home > Weather > Valencia > Past weeks

Flag for Spain Past Weather in Valencia, Spain — Yesterday and Last 2 Weeks

Now
75 °F

Passing clouds.


Feels Like: 77 °F
Forecast: 66 / 79 °F
Wind: 5 mph from East

Location: Valencia / Aeropuerto

Current Time: Jun 25, 2016 at 11:26:22 PM

Latest Report: Jun 25, 2016 at 10:30 PM


Visibility: N/A

Pressure: 29.98 "Hg

Humidity: 74%

Dew Point: 66 °F

Location of ValenciaLocation

Past Weather in Valencia — Graph

°F

Valencia Temperature Yesterday

Maximum temperature yesterday: 82 °F (at 12:30 PM)
Minimum temperature yesterday: 64 °F (at 6:00 AM)
Average temperature yesterday: 75 °F

High & Low Weather Summary for the Past Weeks

 TemperatureHumidityPressure
High91 °F (Jun 13, 1:00 PM)88% (Jun 12, 4:30 AM)30.30 "Hg (Jun 12, 4:30 AM)
Low61 °F (Jun 17, 6:00 AM)14% (Jun 15, 4:30 PM)29.50 "Hg (Jun 15, 5:30 PM)
Average75 °F54%29.99 "Hg
* Reported Jun 10 10:00 PM — Jun 25 10:00 PM, Valencia, Weather by CustomWeather, © 2016

Note: Actual official high and low records may vary slightly from our data, if they occured in-between our weather recording intervals... More about our weather records

Advertising

Valencia Weather History for the Previous 24 Hours

Scroll right to see more
 ConditionsComfort  
Time TempWeatherWind HumidityBarometerVisibility
10:00 PM
Sat, Jun 25
75 °FPassing clouds.6 mph74%29.98 "HgN/A
9:30 PM75 °FPassing clouds.6 mph74%29.98 "HgN/A
9:00 PM75 °FPassing clouds.6 mph69%29.98 "HgN/A
8:30 PM77 °FPassing clouds.7 mph65%29.98 "HgN/A
8:00 PM77 °FPassing clouds.8 mph65%29.98 "HgN/A
7:30 PM79 °FPassing clouds.9 mph61%29.95 "HgN/A
7:00 PM79 °FPassing clouds.9 mph61%29.95 "HgN/A
6:30 PM81 °FPassing clouds.9 mph58%29.95 "HgN/A
6:00 PM79 °FPassing clouds.9 mph61%29.95 "HgN/A
5:30 PM79 °FPassing clouds.12 mph61%29.98 "HgN/A
5:00 PM79 °FPassing clouds.10 mph65%29.98 "HgN/A
4:30 PM79 °FPassing clouds.12 mph65%29.98 "HgN/A
4:00 PM81 °FPassing clouds.10 mph58%29.98 "HgN/A
3:30 PM81 °FPassing clouds.12 mph58%29.98 "HgN/A
3:00 PM81 °FPassing clouds.12 mph58%29.98 "HgN/A
2:30 PM81 °FPassing clouds.14 mph54%29.98 "HgN/A
2:00 PM82 °FPassing clouds.14 mph55%30.01 "HgN/A
1:30 PM81 °FPassing clouds.14 mph54%30.01 "HgN/A
1:00 PM81 °FPassing clouds.13 mph54%30.01 "HgN/A
12:30 PM81 °FPassing clouds.13 mph51%30.01 "HgN/A
12:00 PM81 °FPassing clouds.10 mph51%30.01 "HgN/A
11:30 AM81 °FPassing clouds.7 mph54%30.01 "HgN/A
11:00 AM81 °FPassing clouds.8 mph54%30.01 "HgN/A
10:30 AM81 °FPassing clouds.3 mph51%30.01 "HgN/A
10:00 AM77 °FPassing clouds.3 mph61%30.01 "HgN/A
9:30 AM77 °FPassing clouds.1 mph61%30.01 "HgN/A
9:00 AM73 °FPassing clouds.2 mph74%30.01 "HgN/A
8:30 AM72 °FPassing clouds.3 mph73%30.01 "HgN/A
8:00 AM70 °FPassing clouds.2 mph78%30.01 "HgN/A
7:30 AM68 °FPassing clouds.2 mph78%29.98 "HgN/A
7:00 AM68 °FClear.2 mph78%29.98 "Hg10 mi
6:30 AM68 °FClear.2 mph78%29.98 "Hg10 mi
6:00 AM68 °FClear.6 mph78%29.98 "Hg10 mi
5:30 AM70 °FClear.2 mph73%29.98 "Hg10 mi
5:00 AM68 °FClear.3 mph78%29.98 "Hg10 mi
4:30 AM70 °FClear.3 mph73%29.98 "Hg10 mi
4:00 AM70 °FClear.2 mph73%29.98 "Hg10 mi
3:30 AM70 °FClear.5 mph73%29.98 "Hg10 mi
3:00 AM72 °FClear.2 mph69%29.98 "Hg10 mi
2:30 AM73 °FPassing clouds.3 mph65%29.98 "HgN/A
2:00 AM73 °FClear.6 mph69%29.98 "Hg10 mi
1:30 AM73 °FPassing clouds.5 mph69%29.98 "HgN/A
1:00 AM75 °FPassing clouds.7 mph65%29.98 "HgN/A
12:30 AM75 °FPassing clouds.9 mph65%29.98 "HgN/A
12:00 AM75 °FPassing clouds.6 mph65%29.98 "HgN/A
11:30 PM
Fri, Jun 24
75 °FPassing clouds.6 mph65%29.98 "HgN/A
11:00 PM75 °FPassing clouds.6 mph65%29.98 "HgN/A
Weather by CustomWeather, © 2016

See weather overviewHow to use our weather pages